Weather History for Mazar-I-Sharif, Afghanistan

Change the Weather History Date:

Friday, February 28, 2014

  Actual Average Record
Temperature  
Mean Temperature 42 °F -  
Max Temperature 51 °F 60 °F - ()
Min Temperature 34 °F 40 °F - ()
Degree Days  
Heating Degree Days 22    
Moisture  
Dew Point 33 °F    
Average Humidity 53    
Maximum Humidity 81    
Minimum Humidity 25    
Precipitation  
Precipitation 0.00 in 0.06 in - ()
Sea Level Pressure  
Sea Level Pressure 30.13 in    
Wind  
Wind Speed 5 mph ()    
Max Wind Speed 16 mph    
Max Gust Speed -    
Visibility 6.1 miles    
Events      
T = Trace of Precipitation, MM = Missing Value Source: Averaged Metar Reports

Daily Weather History Graph

Daily Weather History Graph

Search for Another Location

Airport:

Trip Planner

Search our weather history database for the weather conditions in past years. The results will help you decide how hot, cold, wet, or windy it might be!

Date:

Astronomy

Feb. 28, 2014 Rise Set
Actual Time 6:33 AM AFT 5:54 PM AFT
Civil Twilight 6:07 AM AFT 6:20 PM AFT
Nautical Twilight 5:37 AM AFT 6:50 PM AFT
Astronomical Twilight 5:07 AM AFT 7:20 PM AFT
Moon 5:29 AM AFT (2/28) 5:00 PM AFT (2/28)
Length of Visible Light 12h 12m
Length of Day
11h 20m
Waning Crescent, 2% of the Moon is Illuminated
Feb 28
Waning Crescent
Mar 1
New
Mar 8
First Quarter
Mar 16
Full
Mar 24
Last Quarter

Hourly Weather History & Observations

Time (AFT) Temp. Windchill Dew Point Humidity Pressure Visibility Wind Dir Wind Speed Gust Speed Precip Events Conditions
12:20 AM 41.0 °F - 32.0 °F 70% 30.21 in 5.0 mi East 2.3 mph - N/A   Partly Cloudy
12:30 AM 42 °F - 33 °F 59% 30.28 in 5 mi East 2.2 mph - -   Scattered Clouds
1:20 AM 41.0 °F - 33.8 °F 76% 30.21 in 5.0 mi South 2.3 mph - N/A   Partly Cloudy
1:30 AM 41 °F - 33 °F 64% 30.26 in 5 mi South 2.2 mph - -   Scattered Clouds
2:20 AM 41.0 °F - 32.0 °F 70% 30.18 in 5.0 mi Variable 1.2 mph - N/A   Partly Cloudy
2:30 AM 41 °F - 32 °F 61% 30.25 in 5 mi 2.2 mph - -   Scattered Clouds
3:20 AM 39.2 °F - 32.0 °F 75% 30.18 in 5.0 mi South 2.3 mph - N/A   Partly Cloudy
3:30 AM 39 °F - 31 °F 65% 30.24 in 5 mi South 2.2 mph - -   Scattered Clouds
4:20 AM 39.2 °F - 32.0 °F 75% 30.18 in 5.0 mi Calm Calm - N/A   Partly Cloudy
4:30 AM 39 °F - 31 °F 64% 30.23 in 5 mi Calm Calm - -   Scattered Clouds
5:20 AM 37.4 °F - 30.2 °F 75% 30.18 in 5.0 mi South 1.2 mph - N/A   Partly Cloudy
5:30 AM 38 °F - 31 °F 66% 30.24 in 5 mi South 2.2 mph - -   Scattered Clouds
6:20 AM 35.6 °F 29.2 °F 30.2 °F 81% 30.18 in 5.0 mi West 8.1 mph - N/A   Clear
6:30 AM 36 °F - 30 °F 71% 30.24 in 5 mi West 8.9 mph - -  
6:42 AM 35.6 °F 31.7 °F 30.2 °F 81% 30.18 in 3.1 mi West 4.6 mph - N/A   Clear
7:20 AM 39.2 °F - 32.0 °F 75% 30.18 in 4.3 mi SSW 2.3 mph - N/A   Clear
7:30 AM 38 °F - 31 °F 68%  in 4 mi SSW 2.2 mph - -  
8:20 AM 46.4 °F - 33.8 °F 62% 30.18 in 5.0 mi Variable 2.3 mph - N/A   Clear
8:30 AM 46 °F - 34 °F 52% 30.23 in 5 mi Calm Calm - -  
9:20 AM 46.4 °F 43.5 °F 33.8 °F 62% 30.18 in 5.0 mi NE 5.8 mph - N/A   Clear
9:30 AM 47 °F - 35 °F 51% 30.22 in 5 mi NE 6.7 mph - -  
10:20 AM 50.0 °F - 35.6 °F 58% 30.18 in 5.6 mi ESE 5.8 mph - N/A   Clear
10:30 AM 51 °F - 35 °F 42% 30.20 in 6 mi ESE 6.7 mph - -  
11:20 AM 57.2 °F - 35.6 °F 44% 30.15 in 6.2 mi ESE 5.8 mph - N/A   Clear
12:20 PM 57.2 °F - 33.8 °F 41% 30.12 in 6.2 mi ENE 11.5 mph - N/A   Clear
12:30 PM 57 °F - 33 °F 28% 30.12 in 9 mi ENE 11.2 mph - -  
1:20 PM 59.0 °F - 33.8 °F 39% 30.09 in 6.2 mi ENE 13.8 mph - N/A   Clear
1:30 PM 59 °F - 34 °F 26%  in 9 mi ENE 15.7 mph - -  
2:20 PM 59.0 °F - 33.8 °F 39% 30.06 in 6.2 mi ENE 16.1 mph - N/A   Clear
2:30 PM 60 °F - 34 °F 26% 30.06 in 9 mi ENE 15.7 mph - -  
3:20 PM 60.8 °F - 33.8 °F 36% 30.04 in 6.2 mi ENE 16.1 mph - N/A   Clear
3:30 PM 61 °F - 34 °F 25% 30.04 in 9 mi ENE 15.7 mph - -  
4:20 PM 59.0 °F - 33.8 °F 39% 30.04 in 6.2 mi ENE 16.1 mph - N/A   Clear
4:30 PM 60 °F - 34 °F 25%  in 9 mi ENE 15.7 mph - -  
5:20 PM 57.2 °F - 32.0 °F 38% 30.04 in 6.2 mi ENE 12.7 mph - N/A   Unknown
5:30 PM 58 °F - 33 °F 26% 30.03 in 9 mi ENE 13.4 mph - -  
6:20 PM 55.4 °F - 33.8 °F 44% 30.04 in 6.2 mi East 8.1 mph - N/A   Unknown
6:30 PM 54 °F - 33 °F 32% 30.04 in 9 mi East 8.9 mph - -  
7:20 PM 50.0 °F - 35.6 °F 58% 30.04 in 6.2 mi SSE 2.3 mph - N/A   Clear
7:30 PM 51 °F - 35 °F 43%  in 9 mi SSE 2.2 mph - -  
8:20 PM 50.0 °F - 33.8 °F 54% 30.04 in 6.2 mi SE 3.5 mph - N/A   Clear
8:30 PM 50 °F - 34 °F 43% 30.05 in 9 mi SE 4.5 mph - -  
9:20 PM 50.0 °F - 33.8 °F 54% 30.04 in 6.2 mi SE 3.5 mph - N/A   Clear
9:30 PM 51 °F - 34 °F 40% 30.05 in 9 mi SE 4.5 mph - -  
10:20 PM 46.4 °F - 33.8 °F 62% 30.01 in 5.6 mi Variable 1.2 mph - N/A   Clear
10:30 PM 47 °F - 35 °F 51% 30.05 in 6 mi 2.2 mph - -  
11:20 PM 44.6 °F 43.1 °F 33.8 °F 66% 30.01 in 5.6 mi South 3.5 mph - N/A   Clear
11:30 PM 45 °F - 35 °F 56% 30.04 in 6 mi South 4.5 mph - -